No particular awareness of the weather is required.    There are no Weather-warnings


Meteo18 Weather Cam more information Meteo18 Weather Cam


Thunder radar more information blitzortung!


Rain radar more information rain snow radar


Visit our other weather sites:

Template documentation
and downloads

And another site



Weather Underground History page Text

Daily Summary for February 27, 2017 Units:  English    Metric   Both
« Previous Day
Next Day »
Daily Weekly Monthly Yearly Custom
  High: Low: Average:
Temperature: TemperatureC °F 5.5 °F 9.7 °F
Dew Point: DewpointC °F 3.3 °F 6.7 °F
Humidity: Humidity % 66 % 82 %
Wind Speed: WindSpeedKMH mph 4.8 mph 19.2 mph
Wind Gust: WindSpeedGustKMH mph - -
Wind:- - SW
Pressure: PressurehPa in 1000.2 in -
Precipitation: 6.3 in    
Historical Graphs
 
 
Tabular Data for February 27, 2017
Time Temperature Dew Point Pressure Wind Wind Speed Wind Gust Humidity Rainfall Rate (Hourly)
TemperatureC °F DewpointC °F PressurehPa in Calm     Humidity % HourlyPrecipMM in
00:02 9.4 °F 7.7 °F 1014.8 in SSW 11.3 mph 14.5 mph 89 % 0.0 in
00:12 9.4 °F 7.7 °F 1014.8 in SSW 8.0 mph 14.5 mph 89 % 0.0 in
00:17 9.4 °F 7.7 °F 1014.8 in SW 6.4 mph 16.1 mph 89 % 0.0 in
00:22 9.4 °F 7.7 °F 1014.8 in SSW 6.4 mph 16.1 mph 89 % 0.0 in
00:32 9.4 °F 7.7 °F 1014.8 in SW 12.9 mph 14.5 mph 89 % 0.0 in
00:37 9.5 °F 7.6 °F 1014.8 in SSW 8.0 mph 14.5 mph 88 % 0.0 in
00:42 9.6 °F 7.7 °F 1014.8 in SW 6.4 mph 16.1 mph 88 % 0.0 in
00:47 9.6 °F 7.7 °F 1014.4 in SSW 11.3 mph 16.1 mph 88 % 0.0 in
00:52 9.7 °F 7.8 °F 1014.4 in SW 8.0 mph 19.3 mph 88 % 0.0 in
00:57 9.6 °F 7.7 °F 1014.4 in SSW 9.7 mph 19.3 mph 88 % 0.0 in
01:02 9.6 °F 7.7 °F 1014.4 in SW 6.4 mph 17.7 mph 88 % 0.0 in
01:12 9.6 °F 7.7 °F 1014.4 in SW 11.3 mph 16.1 mph 88 % 0.0 in
01:17 9.6 °F 7.7 °F 1014.4 in SSW 9.7 mph 16.1 mph 88 % 0.0 in
01:22 9.5 °F 7.6 °F 1014.4 in SSW 11.3 mph 16.1 mph 88 % 0.0 in
01:32 9.5 °F 7.6 °F 1014.1 in SSW 9.7 mph 16.1 mph 88 % 0.0 in
01:37 9.5 °F 7.6 °F 1014.1 in SW 6.4 mph 19.3 mph 88 % 0.0 in
01:42 9.5 °F 7.6 °F 1014.1 in SW 9.7 mph 19.3 mph 88 % 0.0 in
01:47 9.5 °F 7.6 °F 1014.1 in SSW 8.0 mph 19.3 mph 88 % 0.0 in
01:52 9.5 °F 7.6 °F 1013.8 in South 8.0 mph 20.9 mph 88 % 0.0 in
01:57 9.4 °F 7.7 °F 1014.1 in SSW 6.4 mph 20.9 mph 89 % 0.0 in
02:02 9.4 °F 7.7 °F 1013.8 in SW 14.5 mph 20.9 mph 89 % 0.0 in
02:12 9.3 °F 7.6 °F 1013.8 in SSW 4.8 mph 16.1 mph 89 % 0.0 in
02:17 9.3 °F 7.6 °F 1013.8 in SSW 17.7 mph 17.7 mph 89 % 0.0 in
02:22 9.3 °F 7.6 °F 1013.8 in SSW 6.4 mph 16.1 mph 89 % 0.0 in
02:32 9.3 °F 7.4 °F 1013.4 in SW 17.7 mph 19.3 mph 88 % 0.0 in
02:42 9.4 °F 7.5 °F 1013.4 in South 12.9 mph 20.9 mph 88 % 0.0 in
02:47 9.4 °F 7.3 °F 1013.4 in South 8.0 mph 20.9 mph 87 % 0.0 in
02:52 9.4 °F 7.3 °F 1013.1 in SSW 11.3 mph 20.9 mph 87 % 0.0 in
03:02 9.4 °F 7.5 °F 1013.1 in SW 8.0 mph 20.9 mph 88 % 0.0 in
03:12 9.3 °F 7.4 °F 1012.8 in SW 6.4 mph 16.1 mph 88 % 0.0 in
03:17 9.3 °F 7.4 °F 1012.8 in SW 11.3 mph 16.1 mph 88 % 0.0 in
03:22 9.3 °F 7.4 °F 1012.8 in SSW 12.9 mph 16.1 mph 88 % 0.0 in
03:27 9.3 °F 7.4 °F 1012.8 in SSW 9.7 mph 17.7 mph 88 % 0.0 in
03:32 9.4 °F 7.5 °F 1012.4 in SW 8.0 mph 17.7 mph 88 % 0.0 in
03:42 9.4 °F 7.3 °F 1012.4 in SW 12.9 mph 22.5 mph 87 % 0.0 in
03:47 9.3 °F 7.2 °F 1012.1 in SSW 14.5 mph 22.5 mph 87 % 0.0 in
03:52 9.3 °F 7.4 °F 1012.1 in SSW 9.7 mph 22.5 mph 88 % 0.0 in
03:57 9.3 °F 7.4 °F 1012.1 in SW 11.3 mph 22.5 mph 88 % 0.0 in
04:02 9.3 °F 7.4 °F 1012.1 in SSW 12.9 mph 20.9 mph 88 % 0.0 in
04:12 9.3 °F 7.4 °F 1011.7 in SSW 17.7 mph 17.7 mph 88 % 0.0 in
04:17 9.2 °F 7.3 °F 1011.7 in SSW 19.3 mph 20.9 mph 88 % 0.0 in
04:22 9.3 °F 7.4 °F 1011.7 in SW 9.7 mph 20.9 mph 88 % 0.0 in
04:27 9.2 °F 7.3 °F 1011.7 in SSW 12.9 mph 24.1 mph 88 % 0.0 in
04:32 9.2 °F 7.3 °F 1011.7 in SSW 16.1 mph 24.1 mph 88 % 0.0 in
04:42 9.3 °F 7.4 °F 1011.7 in SSW 9.7 mph 20.9 mph 88 % 0.0 in
04:47 9.3 °F 7.2 °F 1011.7 in SSW 16.1 mph 20.9 mph 87 % 0.0 in
04:52 9.3 °F 7.2 °F 1011.4 in South 12.9 mph 22.5 mph 87 % 0.0 in
04:57 9.4 °F 7.2 °F 1011.4 in South 11.3 mph 25.7 mph 86 % 0.0 in
05:02 9.5 °F 7.3 °F 1011.4 in SW 12.9 mph 25.7 mph 86 % 0.0 in
05:12 9.6 °F 7.2 °F 1011.4 in SW 14.5 mph 27.4 mph 85 % 0.0 in
05:17 9.6 °F 7.2 °F 1011.4 in South 8.0 mph 27.4 mph 85 % 0.0 in
05:22 9.4 °F 7.2 °F 1011.1 in SSW 12.9 mph 27.4 mph 86 % 0.0 in
05:27 9.4 °F 7.2 °F 1011.1 in South 14.5 mph 24.1 mph 86 % 0.0 in
05:32 9.3 °F 7.1 °F 1011.1 in South 16.1 mph 24.1 mph 86 % 0.0 in
05:37 9.3 °F 7.1 °F 1011.1 in SSW 22.5 mph 24.1 mph 86 % 0.0 in
05:42 9.3 °F 7.1 °F 1011.1 in SW 17.7 mph 24.1 mph 86 % 0.0 in
05:52 9.3 °F 7.1 °F 1011.1 in SSW 16.1 mph 25.7 mph 86 % 0.0 in
05:57 9.3 °F 7.1 °F 1011.1 in SSW 8.0 mph 27.4 mph 86 % 0.0 in
06:02 9.3 °F 7.1 °F 1011.1 in SW 11.3 mph 27.4 mph 86 % 0.0 in
06:12 9.3 °F 7.1 °F 1010.4 in SSW 11.3 mph 27.4 mph 86 % 0.0 in
06:17 9.3 °F 6.9 °F 1010.4 in SW 20.9 mph 24.1 mph 85 % 0.0 in
06:22 9.4 °F 7.0 °F 1010.4 in SSW 11.3 mph 24.1 mph 85 % 0.0 in
06:27 9.3 °F 6.9 °F 1010.4 in SSW 19.3 mph 24.1 mph 85 % 0.0 in
06:32 9.3 °F 6.9 °F 1010.4 in South 8.0 mph 24.1 mph 85 % 0.0 in
06:42 9.3 °F 6.9 °F 1010.4 in SSW 12.9 mph 24.1 mph 85 % 0.0 in
06:52 9.2 °F 6.8 °F 1010.4 in SW 9.7 mph 22.5 mph 85 % 0.0 in
06:57 9.2 °F 6.8 °F 1010.4 in SSW 12.9 mph 22.5 mph 85 % 0.0 in
07:02 9.2 °F 6.8 °F 1010.4 in SSW 14.5 mph 20.9 mph 85 % 0.0 in
07:12 9.2 °F 6.8 °F 1010.0 in SSW 12.9 mph 20.9 mph 85 % 0.0 in
07:17 9.2 °F 6.8 °F 1010.0 in South 12.9 mph 20.9 mph 85 % 0.0 in
07:22 9.3 °F 6.9 °F 1010.0 in SSW 16.1 mph 20.9 mph 85 % 0.0 in
07:27 9.2 °F 6.8 °F 1009.7 in SSW 12.9 mph 20.9 mph 85 % 0.0 in
07:32 9.2 °F 6.8 °F 1009.7 in SSW 9.7 mph 20.9 mph 85 % 0.0 in
07:42 9.2 °F 6.8 °F 1009.7 in SSW 8.0 mph 20.9 mph 85 % 0.0 in
07:47 9.2 °F 6.6 °F 1009.7 in South 6.4 mph 16.1 mph 84 % 0.0 in
07:52 9.2 °F 6.8 °F 1009.4 in South 9.7 mph 16.1 mph 85 % 0.0 in
07:57 9.1 °F 6.7 °F 1009.4 in South 11.3 mph 14.5 mph 85 % 0.0 in
08:02 9.1 °F 6.7 °F 1009.4 in SSW 4.8 mph 14.5 mph 85 % 0.0 in
08:12 9.2 °F 6.6 °F 1009.4 in SSW 8.0 mph 16.1 mph 84 % 0.0 in
08:17 9.3 °F 6.7 °F 1009.4 in SSW 8.0 mph 19.3 mph 84 % 0.0 in
08:22 9.3 °F 6.6 °F 1009.0 in SW 9.7 mph 19.3 mph 83 % 0.0 in
08:27 9.3 °F 6.6 °F 1009.0 in SSW 12.9 mph 20.9 mph 83 % 0.0 in
08:32 9.4 °F 6.7 °F 1008.7 in SSW 9.7 mph 20.9 mph 83 % 0.0 in
08:37 9.5 °F 6.6 °F 1008.7 in SSW 14.5 mph 25.7 mph 82 % 0.0 in
08:42 9.6 °F 6.7 °F 1008.7 in SSW 19.3 mph 25.7 mph 82 % 0.0 in
08:47 9.8 °F 6.7 °F 1008.7 in South 17.7 mph 25.7 mph 81 % 0.0 in
08:52 9.9 °F 6.8 °F 1008.7 in SW 12.9 mph 25.7 mph 81 % 0.0 in
09:02 10.1 °F 6.8 °F 1008.4 in SSW 17.7 mph 25.7 mph 80 % 0.0 in
09:12 10.2 °F 6.5 °F 1008.4 in SSW 12.9 mph 29.0 mph 78 % 0.0 in
09:17 10.2 °F 6.5 °F 1008.4 in SSE 22.5 mph 29.0 mph 78 % 0.0 in
09:22 10.2 °F 6.3 °F 1008.4 in South 17.7 mph 29.0 mph 77 % 0.0 in
09:27 10.3 °F 6.3 °F 1008.0 in South 22.5 mph 29.0 mph 76 % 0.0 in
09:32 10.3 °F 6.4 °F 1008.0 in SSW 6.4 mph 29.0 mph 77 % 0.0 in
09:37 10.4 °F 6.5 °F 1008.0 in SSW 12.9 mph 29.0 mph 77 % 0.0 in
09:42 10.5 °F 6.4 °F 1008.0 in South 11.3 mph 29.0 mph 76 % 0.0 in
09:47 10.5 °F 6.4 °F 1008.0 in SSW 12.9 mph 24.1 mph 76 % 0.0 in
09:52 10.6 °F 6.5 °F 1008.0 in SSW 8.0 mph 24.1 mph 76 % 0.0 in
09:57 10.6 °F 6.5 °F 1008.0 in South 12.9 mph 24.1 mph 76 % 0.0 in
10:02 10.7 °F 6.6 °F 1007.7 in SSW 14.5 mph 24.1 mph 76 % 0.0 in
10:12 10.7 °F 6.6 °F 1007.3 in SSE 16.1 mph 24.1 mph 76 % 0.0 in
10:17 10.7 °F 6.4 °F 1007.3 in SSE 8.0 mph 27.4 mph 75 % 0.0 in
10:22 10.7 °F 6.3 °F 1007.3 in SSW 19.3 mph 27.4 mph 74 % 0.0 in
10:27 10.7 °F 6.4 °F 1007.0 in SSW 9.7 mph 30.6 mph 75 % 0.0 in
10:32 10.7 °F 6.4 °F 1007.0 in SE 25.7 mph 30.6 mph 75 % 0.0 in
10:42 10.9 °F 6.6 °F 1006.7 in SE 11.3 mph 30.6 mph 75 % 0.0 in
10:47 10.9 °F 6.6 °F 1007.0 in SSW 19.3 mph 35.4 mph 75 % 0.0 in
10:52 10.9 °F 6.6 °F 1006.7 in South 16.1 mph 35.4 mph 75 % 0.0 in
11:02 11.0 °F 6.7 °F 1006.3 in South 12.9 mph 30.6 mph 75 % 0.0 in
11:12 11.1 °F 6.8 °F 1006.0 in SSW 19.3 mph 30.6 mph 75 % 0.0 in
11:17 11.1 °F 6.8 °F 1006.0 in SSW 17.7 mph 35.4 mph 75 % 0.0 in
11:22 11.2 °F 7.1 °F 1006.0 in SSE 25.7 mph 35.4 mph 76 % 0.0 in
11:27 11.2 °F 7.1 °F 1005.6 in SSE 16.1 mph 38.6 mph 76 % 0.0 in
11:32 11.3 °F 7.2 °F 1005.6 in South 14.5 mph 38.6 mph 76 % 0.0 in
11:42 11.9 °F 7.4 °F 1005.3 in South 30.6 mph 38.6 mph 74 % 0.0 in
11:47 12.1 °F 7.8 °F 1005.3 in SSW 20.9 mph 35.4 mph 75 % 0.0 in
11:52 12.2 °F 7.7 °F 1005.0 in SSW 14.5 mph 35.4 mph 74 % 0.0 in
11:57 12.2 °F 7.7 °F 1005.0 in SSW 25.7 mph 43.4 mph 74 % 0.0 in
12:02 12.3 °F 7.8 °F 1005.0 in SW 27.4 mph 43.4 mph 74 % 0.0 in
12:07 12.3 °F 7.6 °F 1005.0 in SSW 37.0 mph 40.2 mph 73 % 0.0 in
12:12 12.4 °F 7.7 °F 1005.0 in SSW 24.1 mph 40.2 mph 73 % 0.0 in
12:17 12.3 °F 7.6 °F 1005.0 in South 33.8 mph 41.8 mph 73 % 0.0 in
12:22 12.2 °F 7.9 °F 1005.0 in SSW 22.5 mph 41.8 mph 75 % 0.0 in
12:32 12.0 °F 7.7 °F 1005.0 in SSW 22.5 mph 46.7 mph 75 % 0.0 in
12:37 12.1 °F 7.8 °F 1004.6 in SSW 17.7 mph 37.0 mph 75 % 0.0 in
12:42 12.1 °F 8.0 °F 1004.6 in SSW 29.0 mph 37.0 mph 76 % 0.0 in
12:52 12.2 °F 7.9 °F 1004.3 in SSW 30.6 mph 38.6 mph 75 % 0.0 in
13:02 12.4 °F 7.9 °F 1003.9 in SW 29.0 mph 38.6 mph 74 % 0.0 in
13:12 12.7 °F 8.2 °F 1003.6 in SW 30.6 mph 38.6 mph 74 % 0.0 in
13:17 12.8 °F 8.3 °F 1003.6 in SSW 33.8 mph 38.6 mph 74 % 0.0 in
13:22 13.0 °F 8.3 °F 1003.6 in SSW 24.1 mph 38.6 mph 73 % 0.0 in
13:27 13.1 °F 8.0 °F 1003.3 in SW 30.6 mph 38.6 mph 71 % 0.0 in
13:32 13.3 °F 7.9 °F 1002.9 in SW 40.2 mph 45.1 mph 70 % 0.0 in
13:37 13.3 °F 7.9 °F 1002.9 in SW 38.6 mph 51.5 mph 70 % 0.0 in
13:42 13.4 °F 7.6 °F 1002.9 in SW 35.4 mph 51.5 mph 68 % 0.0 in
13:47 13.3 °F 7.5 °F 1002.9 in SW 32.2 mph 51.5 mph 68 % 0.0 in
13:52 13.3 °F 7.3 °F 1002.9 in SW 30.6 mph 51.5 mph 67 % 0.0 in
13:57 13.3 °F 7.3 °F 1002.6 in SW 38.6 mph 51.5 mph 67 % 0.0 in
14:02 13.3 °F 7.3 °F 1002.6 in SW 43.4 mph 51.5 mph 67 % 0.0 in
14:12 13.3 °F 7.3 °F 1002.3 in SW 37.0 mph 49.9 mph 67 % 0.0 in
14:17 13.3 °F 7.5 °F 1002.3 in SSW 24.1 mph 49.9 mph 68 % 0.0 in
14:22 13.4 °F 7.4 °F 1002.3 in SW 32.2 mph 53.1 mph 67 % 0.0 in
14:32 13.4 °F 7.2 °F 1001.9 in SW 30.6 mph 53.1 mph 66 % 0.0 in
14:42 13.4 °F 7.4 °F 1001.9 in SSW 30.6 mph 51.5 mph 67 % 0.0 in
14:47 13.3 °F 7.5 °F 1001.9 in SW 33.8 mph 51.5 mph 68 % 0.0 in
14:52 13.3 °F 7.5 °F 1001.9 in SW 35.4 mph 51.5 mph 68 % 0.0 in
14:57 13.2 °F 7.2 °F 1001.9 in SW 30.6 mph 51.5 mph 67 % 0.0 in
15:02 13.2 °F 7.2 °F 1001.9 in SSW 29.0 mph 41.8 mph 67 % 0.0 in
15:12 13.2 °F 7.4 °F 1001.6 in SW 41.8 mph 59.5 mph 68 % 0.0 in
15:17 13.2 °F 7.4 °F 1001.6 in SW 24.1 mph 59.5 mph 68 % 0.0 in
15:22 13.2 °F 7.4 °F 1001.6 in SW 38.6 mph 57.9 mph 68 % 0.0 in
15:32 13.2 °F 7.4 °F 1001.2 in SW 45.1 mph 57.9 mph 68 % 0.0 in
15:37 13.1 °F 7.5 °F 1001.2 in SSW 24.1 mph 56.3 mph 69 % 0.0 in
15:42 13.2 °F 7.4 °F 1000.9 in SW 29.0 mph 56.3 mph 68 % 0.0 in
15:47 13.2 °F 7.4 °F 1000.9 in SSW 24.1 mph 56.3 mph 68 % 0.0 in
15:52 13.1 °F 7.5 °F 1000.9 in SW 32.2 mph 54.7 mph 69 % 0.0 in
15:57 13.1 °F 7.5 °F 1000.9 in SW 29.0 mph 54.7 mph 69 % 0.0 in
16:02 13.1 °F 7.5 °F 1000.9 in SW 19.3 mph 53.1 mph 69 % 0.0 in
16:12 12.9 °F 7.3 °F 1000.6 in SSW 41.8 mph 51.5 mph 69 % 0.0 in
16:17 11.1 °F 7.8 °F 1001.9 in NW 38.6 mph 53.1 mph 80 % 0.5 in
16:22 9.6 °F 7.2 °F 1001.6 in WSW 32.2 mph 70.8 mph 85 % 0.5 in
16:32 9.3 °F 7.1 °F 1001.6 in WSW 45.1 mph 70.8 mph 86 % 1.8 in
16:37 9.2 °F 7.1 °F 1001.6 in WSW 20.9 mph 61.1 mph 87 % 1.8 in
16:42 9.2 °F 7.0 °F 1001.2 in WSW 35.4 mph 57.9 mph 86 % 1.8 in
16:52 9.6 °F 6.7 °F 1001.2 in SSW 20.9 mph 56.3 mph 82 % 2.0 in
16:57 9.7 °F 7.0 °F 1000.9 in SW 17.7 mph 49.9 mph 83 % 2.0 in
17:02 9.9 °F 7.1 °F 1000.9 in SW 22.5 mph 49.9 mph 83 % 2.0 in
17:12 10.1 °F 7.5 °F 1000.9 in SW 27.4 mph 43.4 mph 84 % 2.0 in
17:17 10.1 °F 7.3 °F 1000.9 in SSW 14.5 mph 43.4 mph 83 % 1.5 in
17:22 10.3 °F 7.4 °F 1000.9 in SW 37.0 mph 38.6 mph 82 % 1.5 in
17:27 10.4 °F 7.3 °F 1000.6 in WSW 37.0 mph 43.4 mph 81 % 0.3 in
17:32 10.4 °F 7.5 °F 1000.6 in SW 24.1 mph 43.4 mph 82 % 0.3 in
17:37 10.4 °F 7.5 °F 1000.9 in SW 24.1 mph 48.3 mph 82 % 0.0 in
17:42 10.5 °F 7.4 °F 1000.6 in SW 20.9 mph 48.3 mph 81 % 0.0 in
17:47 10.4 °F 7.3 °F 1000.6 in SSW 17.7 mph 45.1 mph 81 % 0.0 in
17:52 10.4 °F 7.1 °F 1000.6 in SW 22.5 mph 53.1 mph 80 % 0.0 in
18:02 10.4 °F 7.1 °F 1000.6 in West 12.9 mph 53.1 mph 80 % 0.0 in
18:12 10.4 °F 6.9 °F 1000.2 in SW 22.5 mph 48.3 mph 79 % 0.0 in
18:17 10.4 °F 7.1 °F 1000.2 in WSW 22.5 mph 48.3 mph 80 % 0.0 in
18:22 10.3 °F 7.0 °F 1000.2 in SW 24.1 mph 48.3 mph 80 % 0.0 in
18:32 10.3 °F 7.0 °F 1000.2 in SSW 16.1 mph 35.4 mph 80 % 0.0 in
18:37 10.3 °F 6.8 °F 1000.2 in SW 27.4 mph 43.4 mph 79 % 0.0 in
18:42 10.4 °F 6.7 °F 1000.2 in SW 20.9 mph 43.4 mph 78 % 0.0 in
18:52 10.3 °F 6.6 °F 1000.2 in SW 29.0 mph 43.4 mph 78 % 0.0 in
18:57 10.4 °F 6.7 °F 1000.6 in WSW 20.9 mph 41.8 mph 78 % 0.0 in
19:02 10.3 °F 6.8 °F 1000.9 in WSW 29.0 mph 38.6 mph 79 % 0.0 in
19:12 9.9 °F 6.6 °F 1000.9 in WSW 27.4 mph 40.2 mph 80 % 0.0 in
19:17 9.8 °F 6.7 °F 1000.6 in SW 17.7 mph 56.3 mph 81 % 0.0 in
19:22 9.5 °F 6.6 °F 1000.9 in SW 25.7 mph 56.3 mph 82 % 0.0 in
19:32 9.2 °F 6.5 °F 1001.2 in West 20.9 mph 41.8 mph 83 % 0.0 in
19:37 8.8 °F 6.2 °F 1000.9 in WSW 49.9 mph 49.9 mph 84 % 0.3 in
19:42 8.4 °F 6.0 °F 1000.6 in WSW 16.1 mph 49.9 mph 85 % 0.3 in
19:47 8.3 °F 6.1 °F 1000.6 in WSW 25.7 mph 61.1 mph 86 % 0.5 in
19:52 8.3 °F 6.1 °F 1000.6 in SW 19.3 mph 61.1 mph 86 % 0.5 in
19:57 8.4 °F 6.0 °F 1000.9 in West 16.1 mph 45.1 mph 85 % 0.5 in
20:02 8.4 °F 6.0 °F 1000.9 in WSW 17.7 mph 45.1 mph 85 % 0.5 in
20:12 8.3 °F 6.1 °F 1000.9 in SSW 14.5 mph 40.2 mph 86 % 0.5 in
20:22 8.0 °F 6.3 °F 1000.9 in West 19.3 mph 41.8 mph 89 % 0.5 in
20:27 8.0 °F 6.3 °F 1000.9 in WSW 20.9 mph 35.4 mph 89 % 0.8 in
20:32 7.9 °F 6.4 °F 1000.9 in WSW 19.3 mph 40.2 mph 90 % 0.8 in
20:42 7.8 °F 6.4 °F 1000.9 in SSW 19.3 mph 40.2 mph 91 % 1.0 in
20:47 7.8 °F 6.4 °F 1000.9 in West 19.3 mph 40.2 mph 91 % 1.3 in
20:52 7.3 °F 5.4 °F 1001.2 in West 22.5 mph 40.2 mph 88 % 1.3 in
20:57 6.9 °F 4.9 °F 1001.2 in WSW 38.6 mph 53.1 mph 87 % 1.5 in
21:02 6.6 °F 4.8 °F 1001.2 in WSW 30.6 mph 53.1 mph 88 % 1.5 in
21:12 6.1 °F 4.4 °F 1001.2 in West 27.4 mph 56.3 mph 89 % 1.5 in
21:17 6.1 °F 4.6 °F 1001.2 in West 16.1 mph 51.5 mph 90 % 1.8 in
21:22 6.0 °F 4.5 °F 1001.2 in WSW 8.0 mph 41.8 mph 90 % 1.8 in
21:27 6.0 °F 4.5 °F 1001.2 in West 14.5 mph 37.0 mph 90 % 1.5 in
21:32 6.0 °F 4.5 °F 1001.2 in SW 20.9 mph 35.4 mph 90 % 1.5 in
21:42 5.9 °F 4.4 °F 1001.6 in WSW 35.4 mph 37.0 mph 90 % 1.5 in
21:47 5.8 °F 4.3 °F 1001.6 in West 20.9 mph 43.4 mph 90 % 1.5 in
21:52 5.8 °F 4.3 °F 1001.6 in SW 11.3 mph 43.4 mph 90 % 1.5 in
21:57 5.7 °F 4.2 °F 1001.9 in West 25.7 mph 43.4 mph 90 % 1.3 in
22:02 5.7 °F 4.2 °F 1001.9 in West 16.1 mph 38.6 mph 90 % 1.3 in
22:07 5.7 °F 4.0 °F 1001.9 in WSW 22.5 mph 38.6 mph 89 % 1.5 in
22:12 5.6 °F 3.9 °F 1002.3 in West 29.0 mph 38.6 mph 89 % 1.5 in
22:17 5.6 °F 4.1 °F 1001.9 in WSW 17.7 mph 40.2 mph 90 % 1.8 in
22:22 5.6 °F 3.9 °F 1001.9 in SW 22.5 mph 40.2 mph 89 % 1.8 in
22:32 5.5 °F 3.8 °F 1001.6 in SW 24.1 mph 40.2 mph 89 % 2.0 in
22:37 5.5 °F 3.8 °F 1001.6 in SW 30.6 mph 40.2 mph 89 % 1.8 in
22:42 5.5 °F 3.8 °F 1001.6 in SW 19.3 mph 40.2 mph 89 % 1.8 in
22:52 5.6 °F 3.8 °F 1001.2 in SW 19.3 mph 37.0 mph 88 % 1.5 in
22:57 5.6 °F 3.8 °F 1001.2 in SW 19.3 mph 32.2 mph 88 % 1.3 in
23:02 5.6 °F 3.6 °F 1001.2 in WSW 20.9 mph 33.8 mph 87 % 1.3 in
23:12 5.6 °F 3.6 °F 1001.2 in WSW 17.7 mph 33.8 mph 87 % 0.8 in
23:17 5.6 °F 3.6 °F 1001.2 in SSW 16.1 mph 33.8 mph 87 % 0.3 in
23:22 5.7 °F 3.5 °F 1001.2 in SW 16.1 mph 33.8 mph 86 % 0.3 in
23:27 5.7 °F 3.5 °F 1000.9 in SW 20.9 mph 30.6 mph 86 % 0.0 in
23:32 5.7 °F 3.5 °F 1000.9 in SW 25.7 mph 30.6 mph 86 % 0.0 in
23:37 5.7 °F 3.5 °F 1001.2 in SSW 19.3 mph 33.8 mph 86 % 0.0 in
23:42 5.8 °F 3.5 °F 1001.2 in SW 20.9 mph 33.8 mph 85 % 0.0 in
23:52 5.8 °F 3.5 °F 1001.2 in SSW 16.1 mph 32.2 mph 85 % 0.0 in
23:57 5.8 °F 3.3 °F 1000.9 in WSW 19.3 mph 32.2 mph 84 % 0.0 in
Meteo18
Compliments of Weather Underground - 4 mb

Script developed by  Jim McMurry - jmcmurry@mwt.net Adapted for the template by  Wim van der Kuil - Leuven-Template.eu

You find our weather info also at:

European Weather Network

Weather Underground

Equipment we use:

Weather-station
Davis Vue

Weather-program
Meteobridge

Weather-server
Raspberry PI 2 B+

Provider
1 and 1

Davis Vue

Meteobridge

Raspberry PI 2 B+

1 and 1